| time (UTC) | temp F | wind direction | speed knots | gust knots | rain 1hr in | rain 24hr in | rain mn in | humidity % | barometer mb |
| 20260906215156 | 84 | 156 | 4.3 | 12.2 | 0.00 | 0.00 | 0.00 | 32 | 1021.8 |
| 20260906214655 | 85 | 82 | 4.3 | 13.0 | 0.00 | 0.00 | 0.00 | 30 | 1022.0 |
| 20260906214150 | 85 | 136 | 9.6 | 16.5 | 0.00 | 0.00 | 0.00 | 31 | 1022.0 |
| 20260906213649 | 85 | 154 | 11.3 | 13.9 | 0.00 | 0.00 | 0.00 | 32 | 1022.2 |
| 20260906213144 | 84 | 176 | 1.7 | 11.3 | 0.00 | 0.00 | 0.00 | 33 | 1022.2 |
| 20260906212641 | 84 | 190 | 7.0 | 11.3 | 0.00 | 0.00 | 0.00 | 32 | 1022.3 |
| 20260906212137 | 84 | 151 | 10.4 | 14.8 | 0.00 | 0.00 | 0.00 | 33 | 1022.0 |
| 20260906211637 | 84 | 116 | 3.5 | 11.3 | 0.00 | 0.00 | 0.00 | 33 | 1022.0 |
| 20260906211132 | 84 | 139 | 5.2 | 8.7 | 0.00 | 0.00 | 0.00 | 34 | 1022.4 |
| 20260906210628 | 83 | 190 | 7.0 | 9.6 | 0.00 | 0.00 | 0.00 | 35 | 1022.5 |
| 20260906210122 | 84 | 167 | 7.0 | 13.0 | 0.00 | 0.00 | 0.00 | 34 | 1022.2 |
| 20260906205618 | 84 | 145 | 6.1 | 9.6 | 0.00 | 0.00 | 0.00 | 34 | 1022.4 |
| 20260906205114 | 84 | 92 | 1.7 | 8.7 | 0.00 | 0.00 | 0.00 | 35 | 1022.4 |
| 20260906204613 | 83 | 160 | 3.5 | 11.3 | 0.00 | 0.00 | 0.00 | 34 | 1022.3 |
| 20260906204108 | 84 | 140 | 7.0 | 11.3 | 0.00 | 0.00 | 0.00 | 33 | 1022.6 |
| 20260906203608 | 83 | 132 | 1.7 | 9.6 | 0.00 | 0.00 | 0.00 | 34 | 1022.9 |
| 20260906203103 | 83 | 139 | 3.5 | 11.3 | 0.00 | 0.00 | 0.00 | 34 | 1022.8 |
| 20260906202559 | 83 | 138 | 7.0 | 8.7 | 0.00 | 0.00 | 0.00 | 34 | 1022.6 |
| 20260906202100 | 83 | 186 | 8.7 | 11.3 | 0.00 | 0.00 | 0.00 | 34 | 1022.9 |
| 20260906201600 | 83 | 200 | 3.5 | 7.8 | 0.00 | 0.00 | 0.00 | 34 | 1022.9 |
| 20260906201059 | 83 | 93 | 2.6 | 8.7 | 0.00 | 0.00 | 0.00 | 35 | 1022.8 |
| 20260906200555 | 83 | 164 | 2.6 | 7.0 | 0.00 | 0.00 | 0.00 | 34 | 1023.0 |
| 20260906200051 | 83 | 201 | 6.1 | 11.3 | 0.00 | 0.00 | 0.00 | 33 | 1023.0 |
| 20260906195546 | 83 | 209 | 5.2 | 9.6 | 0.00 | 0.00 | 0.00 | 34 | 1023.0 |
| 20260906195043 | 83 | 190 | 7.0 | 9.6 | 0.00 | 0.00 | 0.00 | 33 | 1023.0 |
| 20260906194538 | 83 | 130 | 5.2 | 6.1 | 0.00 | 0.00 | 0.00 | 34 | 1023.1 |
| 20260906194034 | 83 | 135 | 1.7 | 5.2 | 0.00 | 0.00 | 0.00 | 33 | 1023.1 |
| 20260906193533 | 83 | 205 | 8.7 | 9.6 | 0.00 | 0.00 | 0.00 | 32 | 1023.4 |
| 20260906193029 | 82 | 184 | 9.6 | 9.6 | 0.00 | 0.00 | 0.00 | 32 | 1023.5 |
| 20260906192524 | 83 | 165 | 5.2 | 7.8 | 0.00 | 0.00 | 0.00 | 33 | 1023.4 |
| 20260906192023 | 82 | 176 | 5.2 | 7.8 | 0.00 | 0.00 | 0.00 | 32 | 1023.4 |
| 20260906191519 | 83 | 177 | 3.5 | 12.2 | 0.00 | 0.00 | 0.00 | 33 | 1023.5 |
| 20260906191017 | 83 | 109 | 3.5 | 7.0 | 0.00 | 0.00 | 0.00 | 32 | 1023.3 |
| 20260906190517 | 82 | 91 | 0.9 | 7.8 | 0.00 | 0.00 | 0.00 | 34 | 1023.6 |
| 20260906190012 | 82 | 188 | 1.7 | 7.8 | 0.00 | 0.00 | 0.00 | 34 | 1023.6 |
| 20260906185511 | 82 | 132 | 7.0 | 9.6 | 0.00 | 0.00 | 0.00 | 34 | 1023.9 |
| 20260906185010 | 82 | 153 | 9.6 | 13.0 | 0.00 | 0.00 | 0.00 | 34 | 1023.7 |
| 20260906184505 | 82 | 62 | 5.2 | 7.0 | 0.00 | 0.00 | 0.00 | 34 | 1023.7 |
| 20260906184001 | 81 | 196 | 4.3 | 5.2 | 0.00 | 0.00 | 0.00 | 34 | 1024.1 |
| 20260906183456 | 81 | 77 | 2.6 | 6.1 | 0.00 | 0.00 | 0.00 | 35 | 1024.1 |
| 20260906182952 | 82 | 139 | 5.2 | 12.2 | 0.00 | 0.00 | 0.00 | 34 | 1024.4 |
| 20260906182447 | 82 | 162 | 0.9 | 8.7 | 0.00 | 0.00 | 0.00 | 35 | 1024.4 |
| 20260906181943 | 81 | 221 | 5.2 | 9.6 | 0.00 | 0.00 | 0.00 | 35 | 1024.4 |
| 20260906181439 | 82 | 174 | 8.7 | 11.3 | 0.00 | 0.00 | 0.00 | 34 | 1024.7 |
| 20260906180934 | 81 | 199 | 3.5 | 8.7 | 0.00 | 0.00 | 0.00 | 35 | 1024.7 |
| 20260906180429 | 81 | 79 | 3.5 | 9.6 | 0.00 | 0.00 | 0.00 | 36 | 1024.8 |
| 20260906175927 | 81 | 155 | 3.5 | 8.7 | 0.00 | 0.00 | 0.00 | 34 | 1024.8 |
| 20260906175422 | 82 | 122 | 3.5 | 7.0 | 0.00 | 0.00 | 0.00 | 33 | 1024.8 |
| 20260906174920 | 81 | 198 | 5.2 | 7.0 | 0.00 | 0.00 | 0.00 | 34 | 1025.0 |
| 20260906174420 | 81 | 181 | 4.3 | 7.8 | 0.00 | 0.00 | 0.00 | 34 | 1025.1 |
| 20260906173915 | 81 | 117 | 4.3 | 6.1 | 0.00 | 0.00 | 0.00 | 34 | 1025.2 |
| 20260906173410 | 81 | 205 | 5.2 | 8.7 | 0.00 | 0.00 | 0.00 | 33 | 1025.2 |
| 20260906172909 | 80 | 76 | 0.9 | 7.0 | 0.00 | 0.00 | 0.00 | 35 | 1025.1 |
| 20260906172406 | 81 | 88 | 7.0 | 9.6 | 0.00 | 0.00 | 0.00 | 32 | 1025.3 |
| 20260906171901 | 81 | 94 | 3.5 | 6.1 | 0.00 | 0.00 | 0.00 | 33 | 1025.5 |
| 20260906171355 | 81 | 75 | 1.7 | 6.1 | 0.00 | 0.00 | 0.00 | 33 | 1025.6 |
| 20260906170851 | 80 | 87 | 2.6 | 6.1 | 0.00 | 0.00 | 0.00 | 33 | 1025.3 |
| 20260906170347 | 79 | 165 | 5.2 | 6.1 | 0.00 | 0.00 | 0.00 | 33 | 1025.3 |
| 20260906165843 | 80 | 222 | 4.3 | 7.8 | 0.00 | 0.00 | 0.00 | 32 | 1025.3 |
| 20260906165342 | 80 | 172 | 6.1 | 7.8 | 0.00 | 0.00 | 0.00 | 31 | 1025.5 |
| 20260906164838 | 80 | 76 | 3.5 | 7.8 | 0.00 | 0.00 | 0.00 | 32 | 1025.3 |
| 20260906164337 | 81 | 166 | 2.6 | 6.1 | 0.00 | 0.00 | 0.00 | 31 | 1025.3 |
| 20260906163833 | 81 | 181 | 3.5 | 6.1 | 0.00 | 0.00 | 0.00 | 30 | 1025.5 |
| 20260906163329 | 81 | 162 | 3.5 | 3.5 | 0.00 | 0.00 | 0.00 | 30 | 1025.5 |
| 20260906162826 | 80 | 108 | 2.6 | 3.5 | 0.00 | 0.00 | 0.00 | 32 | 1025.5 |
| 20260906162325 | 80 | 135 | 2.6 | 6.1 | 0.00 | 0.00 | 0.00 | 32 | 1025.5 |
| 20260906161821 | 80 | 79 | 0.9 | 5.2 | 0.00 | 0.00 | 0.00 | 31 | 1025.5 |
| 20260906161320 | 80 | 117 | 2.6 | 3.5 | 0.00 | 0.00 | 0.00 | 31 | 1025.2 |
| 20260906160819 | 80 | 144 | 1.7 | 2.6 | 0.00 | 0.00 | 0.00 | 31 | 1025.3 |
| 20260906160313 | 80 | 61 | 1.7 | 8.7 | 0.00 | 0.00 | 0.00 | 30 | 1025.6 |
| 20260906155811 | 81 | 48 | 0.9 | 2.6 | 0.00 | 0.00 | 0.00 | 30 | 1025.6 |
| 20260906155307 | 81 | 82 | 0.9 | 2.6 | 0.00 | 0.00 | 0.00 | 30 | 1025.5 |
| 20260906154802 | 80 | 65 | 0.9 | 1.7 | 0.00 | 0.00 | 0.00 | 31 | 1025.2 |
| 20260906154256 | 79 | 59 | 1.7 | 1.7 | 0.00 | 0.00 | 0.00 | 31 | 1025.3 |
| 20260906153754 | 78 | 57 | 0.0 | 1.7 | 0.00 | 0.00 | 0.00 | 33 | 1025.3 |
| 20260906153249 | 78 | 61 | 0.9 | 2.6 | 0.00 | 0.00 | 0.00 | 33 | 1025.2 |
| 20260906152745 | 78 | 69 | 1.7 | 1.7 | 0.00 | 0.00 | 0.00 | 34 | 1025.6 |
| 20260906152245 | 77 | 49 | 1.7 | 2.6 | 0.00 | 0.00 | 0.00 | 34 | 1025.3 |
| 20260906151744 | 77 | 41 | 1.7 | 2.6 | 0.00 | 0.00 | 0.00 | 34 | 1025.3 |
| 20260906151240 | 76 | 68 | 0.9 | 1.7 | 0.00 | 0.00 | 0.00 | 37 | 1025.3 |
| 20260906150735 | 76 | 52 | 2.6 | 3.5 | 0.00 | 0.00 | 0.00 | 34 | 1025.3 |
| 20260906150231 | 77 | 54 | 1.7 | 1.7 | 0.00 | 0.00 | 0.00 | 36 | 1025.2 |
| 20260906145729 | 76 | 79 | 0.9 | 1.7 | 0.00 | 0.00 | 0.00 | 36 | 1025.3 |
| 20260906145228 | 75 | 63 | 0.9 | 0.9 | 0.00 | 0.00 | 0.00 | 38 | 1025.1 |
| 20260906144724 | 75 | 63 | 1.7 | 1.7 | 0.00 | 0.00 | 0.00 | 37 | 1025.2 |
| 20260906144219 | 74 | 67 | 0.9 | 1.7 | 0.00 | 0.00 | 0.00 | 38 | 1025.2 |
| 20260906143718 | 75 | 63 | 0.9 | 1.7 | 0.00 | 0.00 | 0.00 | 38 | 1025.3 |
| 20260906143216 | 74 | 44 | 1.7 | 1.7 | 0.00 | 0.00 | 0.00 | 40 | 1025.2 |
| 20260906142715 | 74 | 69 | 0.9 | 1.7 | 0.00 | 0.00 | 0.00 | 40 | 1025.0 |
| 20260906142210 | 73 | 61 | 0.9 | 0.9 | 0.00 | 0.00 | 0.00 | 40 | 1024.8 |
| 20260906141709 | 73 | 69 | 0.0 | 0.9 | 0.00 | 0.00 | 0.00 | 39 | 1024.8 |
| 20260906141204 | 72 | 69 | 0.9 | 0.9 | 0.00 | 0.00 | 0.00 | 41 | 1025.2 |
| 20260906140703 | 72 | 69 | 0.9 | 0.9 | 0.00 | 0.00 | 0.00 | 40 | 1025.2 |
| 20260906140158 | 72 | 78 | 0.9 | 0.9 | 0.00 | 0.00 | 0.00 | 42 | 1025.2 |
| 20260906135655 | 70 | 78 | 0.0 | 0.9 | 0.00 | 0.00 | 0.00 | 43 | 1025.1 |
| 20260906135151 | 70 | 88 | 1.7 | 1.7 | 0.00 | 0.00 | 0.00 | 46 | 1025.1 |
| 20260906134647 | 70 | 85 | 0.9 | 1.7 | 0.00 | 0.00 | 0.00 | 47 | 1024.8 |
| 20260906134141 | 71 | 91 | 0.9 | 0.9 | 0.00 | 0.00 | 0.00 | 44 | 1024.8 |
| 20260906133637 | 70 | 112 | 0.0 | 0.0 | 0.00 | 0.00 | 0.00 | 47 | 1024.7 |
| 20260906133137 | 69 | 112 | 0.0 | 0.0 | 0.00 | 0.00 | 0.00 | 48 | 1024.7 |
| 20260906132633 | 69 | 113 | 0.9 | 0.9 | 0.00 | 0.00 | 0.00 | 48 | 1024.8 |
| 20260906132128 | 67 | 235 | 0.0 | 0.0 | 0.00 | 0.00 | 0.00 | 48 | 1024.8 |
| 20260906131624 | 66 | 244 | 1.7 | 1.7 | 0.00 | 0.00 | 0.00 | 48 | 1024.7 |
| 20260906131119 | 65 | 244 | 0.0 | 0.0 | 0.00 | 0.00 | 0.00 | 50 | 1024.8 |
| 20260906130614 | 66 | 244 | 0.0 | 0.9 | 0.00 | 0.00 | 0.00 | 50 | 1024.8 |
| 20260906130109 | 66 | 244 | 0.0 | 0.0 | 0.00 | 0.00 | 0.00 | 49 | 1024.6 |
| 20260906125607 | 65 | 244 | 0.9 | 0.9 | 0.00 | 0.00 | 0.00 | 49 | 1024.6 |
| 20260906125106 | 64 | 244 | 0.0 | 0.0 | 0.00 | 0.00 | 0.00 | 51 | 1024.6 |
| 20260906124602 | 63 | 244 | 0.0 | 0.9 | 0.00 | 0.00 | 0.00 | 51 | 1024.6 |
| 20260906124056 | 63 | 244 | 0.9 | 0.9 | 0.00 | 0.00 | 0.00 | 51 | 1024.6 |
| 20260906123555 | 64 | 244 | 0.0 | 0.0 | 0.00 | 0.00 | 0.00 | 50 | 1024.7 |
| 20260906123051 | 63 | 244 | 1.7 | 1.7 | 0.00 | 0.00 | 0.00 | 50 | 1024.4 |
| 20260906122550 | 63 | 244 | 0.0 | 0.0 | 0.00 | 0.00 | 0.00 | 51 | 1024.5 |
| 20260906122046 | 63 | 244 | 0.9 | 0.9 | 0.00 | 0.00 | 0.00 | 53 | 1024.5 |
| 20260906121542 | 62 | 243 | 0.9 | 0.9 | 0.00 | 0.00 | 0.00 | 52 | 1024.4 |
| 20260906121039 | 63 | 244 | 0.0 | 0.0 | 0.00 | 0.00 | 0.00 | 54 | 1024.1 |
| 20260906120533 | 62 | 243 | 0.9 | 0.9 | 0.00 | 0.00 | 0.00 | 52 | 1024.5 |
| 20260906120031 | 63 | 243 | 0.0 | 0.0 | 0.00 | 0.00 | 0.00 | 55 | 1024.2 |
| 20260906115531 | 63 | 244 | 0.0 | 1.7 | 0.00 | 0.00 | 0.00 | 55 | 1024.2 |
| 20260906115026 | 62 | 276 | 0.0 | 0.0 | 0.00 | 0.00 | 0.00 | 54 | 1024.4 |
| 20260906114526 | 62 | 176 | 0.0 | 0.0 | 0.00 | 0.00 | 0.00 | 54 | 1024.6 |
| 20260906114022 | 63 | 176 | 1.7 | 2.6 | 0.00 | 0.00 | 0.00 | 54 | 1024.1 |
| 20260906113520 | 64 | 175 | 0.9 | 0.9 | 0.00 | 0.00 | 0.00 | 51 | 1024.1 |
| 20260906113016 | 64 | 177 | 0.0 | 0.9 | 0.00 | 0.00 | 0.00 | 50 | 1024.1 |
| 20260906112510 | 64 | 151 | 0.0 | 0.9 | 0.00 | 0.00 | 0.00 | 51 | 1024.0 |
| 20260906112007 | 63 | 151 | 0.9 | 0.9 | 0.00 | 0.00 | 0.00 | 51 | 1024.0 |
| 20260906111506 | 63 | 151 | 0.0 | 0.0 | 0.00 | 0.00 | 0.00 | 53 | 1023.9 |
| 20260906111002 | 64 | 150 | 0.0 | 0.0 | 0.00 | 0.00 | 0.00 | 53 | 1023.9 |
| 20260906110456 | 64 | 150 | 0.0 | 0.0 | 0.00 | 0.00 | 0.00 | 52 | 1024.0 |
| 20260906105955 | 68 | 147 | 1.7 | 1.7 | 0.00 | 0.00 | 0.00 | 49 | 1023.9 |
| 20260906105451 | 68 | 330 | 1.7 | 1.7 | 0.00 | 0.00 | 0.00 | 43 | 1023.6 |
| 20260906104947 | 68 | 300 | 1.7 | 2.6 | 0.00 | 0.00 | 0.00 | 43 | 1023.6 |
| 20260906104445 | 68 | 260 | 1.7 | 1.7 | 0.00 | 0.00 | 0.00 | 44 | 1024.0 |
| 20260906103945 | 68 | 257 | 1.7 | 2.6 | 0.00 | 0.00 | 0.00 | 45 | 1023.7 |
| 20260906103443 | 66 | 258 | 2.6 | 2.6 | 0.00 | 0.00 | 0.00 | 47 | 1023.7 |
| 20260906102938 | 65 | 253 | 1.7 | 1.7 | 0.00 | 0.00 | 0.00 | 51 | 1024.1 |
| 20260906102438 | 66 | 336 | 0.9 | 0.9 | 0.00 | 0.00 | 0.00 | 52 | 1024.2 |
| 20260906101933 | 68 | 325 | 0.9 | 2.6 | 0.00 | 0.00 | 0.00 | 51 | 1024.4 |
| 20260906101428 | 67 | 219 | 4.3 | 7.0 | 0.00 | 0.00 | 0.00 | 52 | 1024.4 |
| 20260906100924 | 69 | 219 | 3.5 | 5.2 | 0.00 | 0.00 | 0.00 | 51 | 1024.2 |
| 20260906100424 | 69 | 169 | 1.7 | 2.6 | 0.00 | 0.00 | 0.00 | 42 | 1024.2 |
| 20260906095918 | 70 | 322 | 0.0 | 1.7 | 0.00 | 0.00 | 0.00 | 42 | 1024.2 |
| 20260906095414 | 69 | 333 | 0.9 | 1.7 | 0.00 | 0.00 | 0.00 | 42 | 1024.2 |
| 20260906094914 | 68 | 329 | 1.7 | 1.7 | 0.00 | 0.00 | 0.00 | 44 | 1024.1 |
| 20260906094408 | 67 | 315 | 0.0 | 0.0 | 0.00 | 0.00 | 0.00 | 45 | 1024.5 |
| 20260906093905 | 67 | 332 | 0.0 | 0.0 | 0.00 | 0.00 | 0.00 | 46 | 1024.4 |
| 20260906093401 | 67 | 332 | 0.0 | 0.0 | 0.00 | 0.00 | 0.00 | 45 | 1024.2 |
| 20260906092900 | 67 | 332 | 0.0 | 0.0 | 0.00 | 0.00 | 0.00 | 45 | 1024.1 |
| 20260906092400 | 68 | 332 | 0.0 | 0.0 | 0.00 | 0.00 | 0.00 | 45 | 1024.2 |
| 20260906091856 | 69 | 332 | 0.0 | 0.9 | 0.00 | 0.00 | 0.00 | 44 | 1024.4 |
| 20260906091352 | 69 | 332 | 1.7 | 1.7 | 0.00 | 0.00 | 0.00 | 44 | 1023.9 |
| 20260906090848 | 69 | 332 | 1.7 | 1.7 | 0.00 | 0.00 | 0.00 | 45 | 1024.1 |
| 20260906090347 | 69 | 332 | 1.7 | 2.6 | 0.00 | 0.00 | 0.00 | 45 | 1023.9 |
| 20260906085842 | 69 | 334 | 0.9 | 1.7 | 0.00 | 0.00 | 0.00 | 45 | 1024.2 |
| 20260906085341 | 69 | 340 | 0.9 | 2.6 | 0.00 | 0.00 | 0.00 | 46 | 1024.1 |
| 20260906084836 | 69 | 340 | 1.7 | 2.6 | 0.00 | 0.00 | 0.00 | 46 | 1024.0 |
| 20260906084336 | 69 | 311 | 0.9 | 3.5 | 0.00 | 0.00 | 0.00 | 47 | 1024.1 |
| 20260906083831 | 69 | 313 | 0.9 | 2.6 | 0.00 | 0.00 | 0.00 | 48 | 1024.0 |
| 20260906083327 | 68 | 314 | 1.7 | 3.5 | 0.00 | 0.00 | 0.00 | 49 | 1024.1 |
| 20260906082826 | 67 | 333 | 3.5 | 5.2 | 0.00 | 0.00 | 0.00 | 54 | 1024.0 |
| 20260906082321 | 67 | 318 | 0.9 | 1.7 | 0.00 | 0.00 | 0.00 | 55 | 1024.2 |
| 20260906081817 | 67 | 331 | 0.9 | 2.6 | 0.00 | 0.00 | 0.00 | 57 | 1024.2 |
| 20260906081313 | 67 | 334 | 1.7 | 2.6 | 0.00 | 0.00 | 0.00 | 57 | 1024.2 |
| 20260906080809 | 66 | 331 | 1.7 | 1.7 | 0.00 | 0.00 | 0.00 | 58 | 1024.4 |
| 20260906080305 | 65 | 6 | 0.9 | 0.9 | 0.00 | 0.00 | 0.00 | 60 | 1024.4 |
| 20260906075804 | 65 | 1 | 0.9 | 0.9 | 0.00 | 0.00 | 0.00 | 61 | 1024.5 |
| 20260906075306 | 64 | 0 | 0.0 | 0.0 | 0.00 | 0.00 | 0.00 | 64 | 1024.6 |
| 20260906074759 | 65 | 0 | 0.0 | 0.9 | 0.00 | 0.00 | 0.00 | 64 | 1024.4 |
| 20260906074259 | 65 | 359 | 0.0 | 0.0 | 0.00 | 0.00 | 0.00 | 63 | 1024.4 |
| 20260906073758 | 65 | 342 | 0.0 | 0.9 | 0.00 | 0.00 | 0.00 | 64 | 1024.5 |
| 20260906073253 | 66 | 340 | 0.0 | 0.0 | 0.00 | 0.00 | 0.00 | 63 | 1024.4 |
| 20260906072749 | 66 | 336 | 0.9 | 2.6 | 0.00 | 0.00 | 0.00 | 63 | 1024.4 |
| 20260906072244 | 66 | 321 | 0.9 | 0.9 | 0.00 | 0.00 | 0.00 | 63 | 1024.4 |
| 20260906071741 | 66 | 321 | 0.9 | 0.9 | 0.00 | 0.00 | 0.00 | 63 | 1024.5 |
| 20260906071240 | 66 | 273 | 0.0 | 0.9 | 0.00 | 0.00 | 0.00 | 63 | 1024.8 |
| 20260906070737 | 66 | 266 | 0.0 | 1.7 | 0.00 | 0.00 | 0.00 | 62 | 1024.7 |
| 20260906070232 | 66 | 299 | 0.9 | 1.7 | 0.00 | 0.00 | 0.00 | 63 | 1024.7 |
| 20260906065732 | 65 | 288 | 0.9 | 0.9 | 0.00 | 0.00 | 0.00 | 65 | 1024.7 |
| 20260906065227 | 64 | 172 | 0.0 | 0.9 | 0.00 | 0.00 | 0.00 | 66 | 1024.8 |
| 20260906064722 | 64 | 172 | 0.0 | 0.9 | 0.00 | 0.00 | 0.00 | 66 | 1024.8 |
| 20260906064218 | 64 | 173 | 0.9 | 0.9 | 0.00 | 0.00 | 0.00 | 67 | 1025.0 |
| 20260906063713 | 64 | 172 | 0.0 | 0.0 | 0.00 | 0.00 | 0.00 | 66 | 1024.7 |
| 20260906063209 | 65 | 203 | 0.0 | 0.0 | 0.00 | 0.00 | 0.00 | 65 | 1024.8 |
| 20260906062704 | 65 | 203 | 0.0 | 0.9 | 0.00 | 0.00 | 0.00 | 64 | 1024.7 |
| 20260906062203 | 66 | 203 | 0.9 | 0.9 | 0.00 | 0.00 | 0.00 | 63 | 1025.0 |
| 20260906061659 | 67 | 203 | 0.0 | 0.9 | 0.00 | 0.00 | 0.00 | 61 | 1024.7 |
| 20260906061155 | 67 | 204 | 2.6 | 2.6 | 0.00 | 0.00 | 0.00 | 62 | 1024.7 |
| 20260906060651 | 67 | 203 | 0.0 | 1.7 | 0.00 | 0.00 | 0.00 | 62 | 1024.7 |
| 20260906060148 | 66 | 204 | 1.7 | 2.6 | 0.00 | 0.00 | 0.00 | 65 | 1024.6 |
| 20260906055643 | 65 | 203 | 0.9 | 0.9 | 0.00 | 0.00 | 0.00 | 65 | 1024.5 |
| 20260906055138 | 67 | 203 | 0.0 | 0.0 | 0.00 | 0.00 | 0.00 | 62 | 1024.5 |
| 20260906054633 | 68 | 203 | 0.0 | 1.7 | 0.00 | 0.00 | 0.00 | 60 | 1024.1 |
| 20260906054128 | 68 | 204 | 1.7 | 2.6 | 0.00 | 0.00 | 0.00 | 61 | 1024.1 |
| 20260906053626 | 67 | 204 | 1.7 | 2.6 | 0.00 | 0.00 | 0.00 | 62 | 1024.4 |
| 20260906053126 | 66 | 203 | 2.6 | 2.6 | 0.00 | 0.00 | 0.00 | 64 | 1024.4 |
| 20260906052621 | 67 | 203 | 0.0 | 0.0 | 0.00 | 0.00 | 0.00 | 61 | 1024.4 |
| 20260906052118 | 68 | 203 | 0.0 | 1.7 | 0.00 | 0.00 | 0.00 | 61 | 1024.2 |
| 20260906051614 | 66 | 204 | 2.6 | 1.7 | 0.00 | 0.00 | 0.00 | 63 | 1024.4 |
| 20260906051108 | 66 | 203 | 1.7 | 0.9 | 0.00 | 0.00 | 0.00 | 63 | 1024.4 |
| 20260906050604 | 68 | 203 | 0.0 | 0.0 | 0.00 | 0.00 | 0.00 | 60 | 1024.5 |
| 20260906050059 | 69 | 204 | 0.9 | 1.7 | 0.00 | 0.00 | 0.00 | 58 | 1024.4 |
| 20260906045557 | 69 | 204 | 1.7 | 2.6 | 0.00 | 0.00 | 0.00 | 59 | 1024.5 |
| 20260906045053 | 67 | 203 | 2.6 | 2.6 | 0.00 | 0.00 | 0.00 | 61 | 1024.5 |
| 20260906044548 | 67 | 202 | 0.0 | 0.0 | 0.00 | 0.00 | 0.00 | 61 | 1024.6 |
| 20260906044044 | 68 | 202 | 0.0 | 0.0 | 0.00 | 0.00 | 0.00 | 60 | 1024.7 |
| 20260906043539 | 68 | 202 | 0.9 | 0.9 | 0.00 | 0.00 | 0.00 | 60 | 1024.5 |
| 20260906043036 | 68 | 202 | 0.0 | 0.0 | 0.00 | 0.00 | 0.00 | 60 | 1024.6 |
| 20260906042534 | 69 | 202 | 0.0 | 0.0 | 0.00 | 0.00 | 0.00 | 59 | 1024.8 |
| 20260906042029 | 69 | 202 | 0.9 | 1.7 | 0.00 | 0.00 | 0.00 | 58 | 1024.7 |
| 20260906041525 | 70 | 202 | 0.9 | 1.7 | 0.00 | 0.00 | 0.00 | 57 | 1024.8 |
| 20260906041025 | 69 | 202 | 1.7 | 1.7 | 0.00 | 0.00 | 0.00 | 58 | 1024.6 |
| 20260906040520 | 69 | 187 | 0.9 | 1.7 | 0.00 | 0.00 | 0.00 | 57 | 1024.5 |
| 20260906040016 | 70 | 185 | 0.0 | 0.0 | 0.00 | 0.00 | 0.00 | 56 | 1024.5 |
| 20260906035511 | 69 | 207 | 0.9 | 2.6 | 0.00 | 0.00 | 0.00 | 58 | 1024.7 |
| 20260906035007 | 68 | 216 | 0.0 | 0.0 | 0.00 | 0.00 | 0.00 | 57 | 1024.8 |
| 20260906034506 | 69 | 216 | 0.0 | 0.9 | 0.00 | 0.00 | 0.00 | 56 | 1024.7 |
| 20260906034001 | 69 | 216 | 0.0 | 0.0 | 0.00 | 0.00 | 0.00 | 55 | 1024.6 |
| 20260906033456 | 71 | 216 | 0.0 | 0.9 | 0.00 | 0.00 | 0.00 | 51 | 1024.7 |
| 20260906032952 | 72 | 218 | 1.7 | 2.6 | 0.00 | 0.00 | 0.00 | 51 | 1024.8 |
| 20260906032449 | 71 | 220 | 1.7 | 2.6 | 0.00 | 0.00 | 0.00 | 52 | 1024.6 |
| 20260906031948 | 72 | 210 | 1.7 | 1.7 | 0.00 | 0.00 | 0.00 | 51 | 1024.8 |
| 20260906031444 | 71 | 234 | 1.7 | 2.6 | 0.00 | 0.00 | 0.00 | 50 | 1024.5 |
| 20260906030939 | 71 | 235 | 1.7 | 2.6 | 0.00 | 0.00 | 0.00 | 47 | 1024.5 |
| 20260906030433 | 72 | 235 | 1.7 | 1.7 | 0.00 | 0.00 | 0.00 | 45 | 1024.5 |
| 20260906025928 | 73 | 234 | 0.9 | 1.7 | 0.00 | 0.00 | 0.00 | 46 | 1024.5 |
| 20260906025422 | 72 | 246 | 1.7 | 3.5 | 0.00 | 0.00 | 0.00 | 46 | 1024.1 |
| 20260906024921 | 71 | 227 | 5.2 | 5.2 | 0.00 | 0.00 | 0.00 | 48 | 1024.2 |
| 20260906024420 | 70 | 176 | 0.9 | 1.7 | 0.00 | 0.00 | 0.00 | 45 | 1024.4 |
| 20260906023916 | 70 | 211 | 0.9 | 1.7 | 0.00 | 0.00 | 0.00 | 41 | 1024.4 |
| 20260906023412 | 70 | 84 | 0.0 | 0.9 | 0.00 | 0.00 | 0.00 | 38 | 1024.1 |
| 20260906022912 | 69 | 65 | 0.0 | 5.2 | 0.00 | 0.00 | 0.00 | 38 | 1024.1 |
| 20260906022407 | 71 | 68 | 0.0 | 1.7 | 0.00 | 0.00 | 0.00 | 39 | 1023.9 |
| 20260906021902 | 72 | 236 | 0.0 | 0.0 | 0.00 | 0.00 | 0.00 | 35 | 1023.4 |
| 20260906021402 | 73 | 238 | 1.7 | 1.7 | 0.00 | 0.00 | 0.00 | 34 | 1023.4 |
| 20260906020857 | 74 | 244 | 1.7 | 1.7 | 0.00 | 0.00 | 0.00 | 33 | 1023.4 |
| 20260906020357 | 73 | 240 | 0.9 | 1.7 | 0.00 | 0.00 | 0.00 | 33 | 1023.1 |
| 20260906015851 | 74 | 234 | 1.7 | 2.6 | 0.00 | 0.00 | 0.00 | 33 | 1023.0 |
| 20260906015351 | 74 | 234 | 1.7 | 2.6 | 0.00 | 0.00 | 0.00 | 33 | 1023.0 |
| 20260906014851 | 73 | 251 | 1.7 | 1.7 | 0.00 | 0.00 | 0.00 | 35 | 1023.3 |
| 20260906014350 | 74 | 252 | 0.9 | 0.9 | 0.00 | 0.00 | 0.00 | 34 | 1023.0 |
| 20260906013847 | 75 | 252 | 0.9 | 1.7 | 0.00 | 0.00 | 0.00 | 33 | 1022.9 |
| 20260906013342 | 75 | 246 | 1.7 | 2.6 | 0.00 | 0.00 | 0.00 | 33 | 1022.8 |
| 20260906012837 | 74 | 254 | 1.7 | 1.7 | 0.00 | 0.00 | 0.00 | 33 | 1022.9 |
| 20260906012332 | 74 | 252 | 0.9 | 0.9 | 0.00 | 0.00 | 0.00 | 34 | 1022.9 |
| 20260906011832 | 75 | 252 | 0.0 | 0.9 | 0.00 | 0.00 | 0.00 | 34 | 1022.8 |
| 20260906011327 | 75 | 252 | 0.0 | 0.9 | 0.00 | 0.00 | 0.00 | 33 | 1022.9 |
| 20260906010823 | 75 | 252 | 1.7 | 1.7 | 0.00 | 0.00 | 0.00 | 33 | 1022.9 |
| 20260906010319 | 75 | 253 | 0.9 | 0.9 | 0.00 | 0.00 | 0.00 | 33 | 1022.8 |
| 20260906005814 | 75 | 253 | 1.7 | 1.7 | 0.00 | 0.00 | 0.00 | 34 | 1023.0 |
| 20260906005313 | 77 | 206 | 1.7 | 1.7 | 0.00 | 0.00 | 0.00 | 34 | 1023.0 |
| 20260906004812 | 78 | 292 | 0.0 | 0.9 | 0.00 | 0.00 | 0.00 | 33 | 1023.0 |
| 20260906004312 | 78 | 269 | 0.0 | 0.0 | 0.00 | 0.00 | 0.00 | 32 | 1023.1 |
| 20260906003807 | 79 | 258 | 0.0 | 1.7 | 0.00 | 0.00 | 0.00 | 30 | 1023.0 |
| 20260906003303 | 80 | 258 | 0.0 | 0.0 | 0.00 | 0.00 | 0.00 | 30 | 1023.3 |
| 20260906002758 | 80 | 257 | 0.0 | 1.7 | 0.00 | 0.00 | 0.00 | 29 | 1023.3 |
| 20260906002257 | 80 | 260 | 1.7 | 1.7 | 0.00 | 0.00 | 0.00 | 28 | 1023.3 |
| 20260906001753 | 81 | 294 | 0.9 | 0.9 | 0.00 | 0.00 | 0.00 | 27 | 1023.0 |
| 20260906001248 | 82 | 295 | 0.0 | 0.0 | 0.00 | 0.00 | 0.00 | 27 | 1023.1 |
| 20260906000743 | 82 | 293 | 0.0 | 0.0 | 0.00 | 0.00 | 0.00 | 28 | 1023.3 |
| 20260906000243 | 82 | 289 | 0.0 | 0.0 | 0.00 | 0.00 | 0.00 | 27 | 1023.1 |
| 20260905235738 | 82 | 282 | 0.0 | 0.0 | 0.00 | 0.00 | 0.00 | 27 | 1023.1 |
| 20260905235238 | 82 | 274 | 0.0 | 0.0 | 0.00 | 0.00 | 0.00 | 27 | 1023.3 |
| 20260905234734 | 82 | 274 | 0.0 | 0.0 | 0.00 | 0.00 | 0.00 | 27 | 1023.0 |
| 20260905234229 | 82 | 264 | 0.0 | 0.9 | 0.00 | 0.00 | 0.00 | 27 | 1023.1 |
| 20260905233724 | 82 | 260 | 0.0 | 0.0 | 0.00 | 0.00 | 0.00 | 27 | 1023.0 |
| 20260905233223 | 81 | 259 | 0.0 | 0.0 | 0.00 | 0.00 | 0.00 | 27 | 1022.9 |
| 20260905232718 | 81 | 259 | 0.0 | 0.9 | 0.00 | 0.00 | 0.00 | 27 | 1023.0 |
| 20260905232214 | 82 | 258 | 0.9 | 1.7 | 0.00 | 0.00 | 0.00 | 27 | 1023.1 |
| 20260905231710 | 82 | 137 | 0.9 | 0.9 | 0.00 | 0.00 | 0.00 | 27 | 1022.9 |
| 20260905231205 | 82 | 142 | 0.0 | 0.9 | 0.00 | 0.00 | 0.00 | 28 | 1023.0 |
| 20260905230701 | 82 | 181 | 0.0 | 0.0 | 0.00 | 0.00 | 0.00 | 27 | 1022.8 |
| 20260905230159 | 82 | 181 | 0.0 | 0.0 | 0.00 | 0.00 | 0.00 | 27 | 1023.0 |
| 20260905225659 | 82 | 45 | 0.0 | 1.7 | 0.00 | 0.00 | 0.00 | 26 | 1023.0 |
| 20260905225154 | 83 | 100 | 0.9 | 1.7 | 0.00 | 0.00 | 0.00 | 26 | 1022.9 |
| 20260905224654 | 81 | 257 | 0.0 | 0.0 | 0.00 | 0.00 | 0.00 | 27 | 1023.1 |
| 20260905224153 | 80 | 254 | 0.0 | 0.9 | 0.00 | 0.00 | 0.00 | 29 | 1023.1 |
| 20260905223650 | 80 | 342 | 0.0 | 0.9 | 0.00 | 0.00 | 0.00 | 30 | 1023.3 |
| 20260905223147 | 80 | 267 | 1.7 | 1.7 | 0.00 | 0.00 | 0.00 | 30 | 1023.1 |
| 20260905222643 | 80 | 340 | 0.9 | 2.6 | 0.00 | 0.00 | 0.00 | 31 | 1023.4 |
| 20260905222143 | 80 | 344 | 3.5 | 5.2 | 0.00 | 0.00 | 0.00 | 31 | 1023.3 |
| 20260905221638 | 80 | 325 | 1.7 | 5.2 | 0.00 | 0.00 | 0.00 | 31 | 1023.4 |
| 20260905221135 | 80 | 347 | 0.9 | 1.7 | 0.00 | 0.00 | 0.00 | 32 | 1023.3 |
| 20260905220630 | 79 | 256 | 1.7 | 1.7 | 0.00 | 0.00 | 0.00 | 33 | 1023.4 |
| 20260905220126 | 79 | 280 | 0.9 | 1.7 | 0.00 | 0.00 | 0.00 | 31 | 1023.7 |